QPF
0.00 0.00 0.00 0.00 0.00 0.00 0.00 0.00 0.00 0.00 0.00 0.00 0.00 0.00 0.00 0.00 0.00 0.00 0.00 0.00 0.00 0.00 0.00 0.00 0.00 0.00 0.00 0.00 0.00 0.00 0.00 0.00
0.00 0.00 0.00 0.00 0.00 0.00 0.00 0.00 0.00 0.00 0.00 0.00 0.00 0.00 0.00 0.00 0.00 0.00 0.00 0.00 0.00 0.00 0.00 0.00 0.00 0.00 0.00 0.00 0.00 0.00 0.00 0.00
0.00 0.00 0.00 0.00 0.00 0.00 0.00 0.00 0.00 0.00 0.00 0.00 0.00 0.00 0.00 0.00 0.00 0.00 0.00 0.00 0.00 0.00 0.00 0.00 0.00 0.00 0.00 0.00 0.00 0.00 0.00 0.00
0.00 0.00 0.00 0.00 0.00 0.00 0.00 0.00 0.00 0.00 0.00 0.00 0.00 0.00 0.00 0.00 0.00 0.00 0.00 0.00 0.00 0.00 0.00 0.00 0.00 0.00 0.00 0.00 0.00 0.00 0.00 0.00
0.00 0.00 0.00 0.00 0.00 0.00 0.00 0.00 0.00 0.00 0.00 0.00 0.00 0.00 0.00 0.00 0.00 0.00 0.00 0.00 0.00 0.00 0.00 0.00 0.00 0.00 0.00 0.00 0.00 0.00 0.00 0.00
0.00 0.00 0.00 0.00 0.00 0.00 0.00 0.00 0.00 0.00 0.00 0.00 0.00 0.00 0.00 0.00 0.00 0.00 0.00 0.00 0.00 0.00 0.00 0.00 0.00 0.00 0.00 0.00 0.00 0.00 0.00 0.00
0.00 0.00 0.00 0.00 0.00 0.00 0.00 0.00 0.00 0.00 0.00 0.00 0.00 0.00 0.00 0.00 0.00 0.00 0.00 0.00 0.00 0.00 0.00 0.00 0.00 0.00 0.00 0.00 0.00 0.00 0.00 0.00
0.00 0.00 0.00 0.00 0.00 0.00 0.00 0.00 0.00 0.00 0.00 0.00 0.00 0.00 0.00 0.00 0.00 0.00 0.00 0.00 0.00 0.00 0.00 0.00 0.00 0.00 0.00 0.00 0.00 0.00 0.01 0.02
0.00 0.00 0.00 0.00 0.00 0.00 0.00 0.00 0.00 0.00 0.00 0.00 0.00 0.00 0.00 0.00 0.00 0.00 0.00 0.00 0.00 0.00 0.00 0.00 0.00 0.00 0.01 0.03 0.04 0.09 0.12 0.11
0.00 0.00 0.00 0.00 0.00 0.00 0.00 0.00 0.00 0.00 0.00 0.00 0.00 0.00 0.00 0.00 0.00 0.00 0.00 0.00 0.00 0.00 0.00 0.00 0.00 0.02 0.07 0.11 0.09 0.05 0.02 0.01
0.00 0.00 0.00 0.00 0.00 0.00 0.00 0.00 0.00 0.00 0.00 0.00 0.00 0.00 0.00 0.00 0.00 0.00 0.00 0.00 0.00 0.00 0.00 0.02 0.08 0.11 0.08 0.03 0.01 0.00 0.00 0.00
0.00 0.00 0.00 0.00 0.00 0.00 0.00 0.00 0.00 0.00 0.00 0.00 0.00 0.00 0.00 0.00 0.00 0.00 0.00 0.00 0.00 0.00 0.02 0.05 0.03 0.00 0.00 0.00 0.00 0.00 0.00 0.00
0.00 0.00 0.00 0.00 0.00 0.00 0.00 0.00 0.00 0.00 0.00 0.00 0.00 0.00 0.00 0.00 0.00 0.00 0.00 0.00 0.00 0.00 0.00 0.00 0.00 0.00 0.00 0.00 0.00 0.00 0.00 0.00
0.00 0.00 0.00 0.00 0.00 0.00 0.00 0.00 0.00 0.00 0.00 0.00 0.00 0.00 0.00 0.00 0.00 0.00 0.00 0.00 0.00 0.00 0.00 0.00 0.00 0.00 0.00 0.00 0.00 0.00 0.00 0.00
0.00 0.00 0.00 0.00 0.00 0.00 0.00 0.00 0.00 0.00 0.00 0.00 0.00 0.00 0.00 0.00 0.00 0.00 0.00 0.00 0.00 0.00 0.00 0.00 0.00 0.00 0.00 0.00 0.00 0.00 0.00 0.00
0.00 0.00 0.00 0.00 0.00 0.00 0.00 0.00 0.00 0.00 0.00 0.00 0.00 0.00 0.00 0.00 0.00 0.00 0.00 0.00 0.00 0.00 0.00 0.00 0.00 0.00 0.00 0.00 0.00 0.00 0.00 0.00
0.00 0.00 0.00 0.00 0.00 0.00 0.00 0.00 0.00 0.00 0.00 0.00 0.00 0.03 0.09 0.10 0.09 0.05 0.01 0.00 0.00 0.00 0.00 0.00 0.00 0.00 0.00 0.00 0.00 0.00 0.00 0.00
0.00 0.00 0.00 0.00 0.00 0.00 0.00 0.00 0.00 0.00 0.00 0.00 0.01 0.03 0.04 0.02 0.00 0.00 0.00 0.00 0.00 0.00 0.00 0.00 0.00 0.00 0.00 0.00 0.00 0.00 0.00 0.00
0.00 0.00 0.00 0.00 0.00 0.00 0.00 0.00 0.00 0.00 0.00 0.00 0.00 0.00 0.00 0.00 0.00 0.00 0.00 0.00 0.00 0.00 0.00 0.00 0.00 0.00 0.00 0.00 0.00 0.00 0.00 0.00
MSLP
1014.83 1014.94 1015.37 1015.91 1016.26 1016.49 1016.59 1016.85 1016.92 1017.11 1017.24 1017.25 1017.39 1017.49 1017.42 1017.30 1017.18 1017.18 1017.15 1017.17 1017.13 1017.23 1017.36 1017.49 1017.68 1018.00 1018.21 1018.39 1018.49 1018.55 1018.60 1018.68
1014.93 1014.98 1015.37 1015.96 1016.43 1016.59 1016.70 1016.88 1016.80 1017.07 1017.46 1017.53 1017.51 1017.39 1017.11 1017.10 1016.78 1016.43 1016.51 1016.57 1016.71 1016.86 1016.91 1017.03 1017.15 1017.40 1017.36 1017.71 1018.09 1018.32 1018.41 1018.46
1015.64 1015.76 1015.85 1016.11 1016.38 1016.71 1016.87 1016.75 1016.69 1016.67 1016.88 1016.74 1016.68 1016.69 1016.60 1016.53 1016.14 1016.01 1015.82 1015.76 1015.82 1016.07 1016.17 1016.32 1016.45 1016.70 1016.87 1017.03 1017.35 1017.86 1018.08 1018.19
1016.10 1016.06 1016.26 1016.43 1016.59 1016.63 1016.56 1016.35 1016.44 1016.34 1016.43 1016.63 1016.57 1016.65 1016.60 1016.45 1015.96 1015.76 1015.16 1014.91 1014.86 1015.05 1015.15 1015.35 1015.55 1015.85 1016.16 1016.25 1016.52 1017.11 1017.67 1017.91
1016.02 1016.10 1016.25 1016.34 1016.05 1016.13 1016.21 1016.09 1016.18 1016.25 1016.52 1016.66 1016.69 1016.69 1016.64 1015.81 1015.26 1014.91 1014.53 1014.43 1014.25 1014.17 1014.24 1014.48 1014.72 1015.09 1015.52 1015.84 1016.10 1016.69 1017.16 1017.72
1015.98 1015.74 1015.65 1015.81 1016.10 1016.19 1016.23 1016.31 1016.34 1016.50 1016.52 1016.56 1016.54 1016.33 1015.85 1015.33 1015.07 1014.83 1014.46 1014.21 1013.94 1013.72 1013.65 1013.72 1014.45 1015.06 1015.58 1016.07 1016.58 1016.73 1016.98 1017.41
1016.23 1016.23 1016.15 1016.32 1016.50 1016.77 1016.84 1016.71 1016.61 1016.47 1016.22 1016.22 1016.38 1016.20 1015.62 1015.14 1014.64 1014.40 1014.00 1013.69 1013.49 1013.38 1013.44 1013.81 1014.20 1015.02 1015.93 1016.72 1017.10 1017.00 1017.27 1017.33
1016.88 1016.96 1016.96 1017.20 1017.30 1017.38 1017.34 1017.17 1016.98 1016.55 1016.18 1015.98 1015.71 1015.54 1015.28 1014.99 1014.48 1014.20 1013.88 1013.82 1013.88 1013.73 1013.82 1014.55 1015.03 1015.65 1016.18 1016.80 1016.82 1017.45 1017.69 1017.11
1017.46 1017.65 1017.75 1017.82 1018.00 1017.85 1017.64 1017.39 1017.10 1016.58 1016.29 1016.03 1015.73 1015.38 1015.05 1014.58 1014.22 1014.11 1014.00 1014.06 1014.38 1014.65 1014.81 1015.43 1015.85 1016.15 1016.33 1016.34 1016.43 1016.80 1016.84 1016.75
1018.65 1018.68 1018.61 1018.69 1018.51 1018.10 1017.72 1017.46 1017.21 1016.92 1016.67 1016.36 1016.07 1015.44 1014.94 1014.57 1014.33 1014.14 1014.24 1014.54 1014.79 1015.07 1015.40 1015.61 1015.78 1015.95 1016.17 1016.22 1016.23 1016.30 1016.38 1016.45
1019.41 1019.11 1018.94 1018.69 1018.59 1018.30 1018.01 1017.86 1017.58 1017.11 1016.74 1016.15 1015.59 1015.19 1014.70 1014.48 1014.38 1014.28 1014.28 1014.58 1014.80 1015.07 1015.19 1015.16 1015.31 1015.59 1015.84 1015.96 1015.83 1015.95 1016.21 1016.16
1019.76 1019.35 1018.99 1018.79 1018.50 1018.35 1018.04 1017.75 1017.36 1016.83 1016.50 1016.12 1015.44 1014.97 1014.86 1014.63 1014.61 1014.46 1014.61 1014.88 1014.94 1014.88 1014.52 1014.66 1015.36 1015.62 1015.63 1015.75 1015.68 1015.69 1015.80 1015.82
1019.40 1019.23 1018.83 1018.83 1018.73 1018.47 1018.04 1017.73 1017.44 1017.03 1016.58 1015.94 1015.41 1015.03 1015.06 1014.91 1014.82 1014.76 1014.87 1014.82 1014.67 1014.87 1014.79 1014.94 1015.03 1015.22 1015.26 1015.29 1015.39 1015.42 1015.49 1015.51
1019.23 1019.15 1019.03 1018.74 1018.51 1018.31 1017.81 1017.36 1017.27 1017.05 1016.60 1016.18 1015.76 1015.50 1015.25 1015.40 1015.24 1015.02 1015.04 1015.24 1015.32 1015.06 1015.05 1015.13 1015.18 1015.23 1015.28 1015.27 1015.30 1015.24 1015.22 1015.22
1018.85 1018.97 1018.85 1018.60 1018.31 1017.86 1017.37 1017.00 1017.00 1016.63 1016.19 1015.94 1015.58 1015.53 1015.41 1015.40 1015.90 1015.90 1015.54 1015.51 1015.56 1015.39 1015.30 1015.36 1015.36 1015.32 1015.23 1015.19 1015.13 1015.08 1015.14 1015.17
1018.72 1018.66 1018.46 1018.13 1017.74 1017.40 1017.18 1017.08 1016.84 1016.37 1016.12 1015.96 1015.83 1015.57 1015.68 1015.74 1015.91 1016.17 1016.00 1015.85 1015.51 1015.42 1015.33 1015.37 1015.42 1015.23 1014.98 1014.96 1015.06 1015.13 1015.08 1014.91
1018.71 1018.37 1018.04 1017.74 1017.23 1016.95 1016.86 1016.74 1016.68 1016.58 1016.22 1016.11 1016.21 1016.14 1016.11 1016.21 1016.31 1016.28 1015.74 1015.47 1015.51 1015.54 1015.48 1015.48 1015.31 1015.18 1015.09 1014.99 1014.84 1014.76 1014.57 1014.31
1018.67 1018.27 1017.96 1017.40 1017.07 1017.05 1017.06 1016.81 1016.61 1016.48 1016.34 1016.21 1015.96 1016.02 1015.92 1016.02 1016.00 1016.10 1015.76 1015.76 1015.76 1015.76 1015.73 1015.63 1015.47 1015.27 1015.03 1014.77 1014.51 1014.25 1014.03 1013.76
1018.65 1018.04 1017.77 1017.89 1017.66 1017.30 1017.01 1016.71 1016.44 1016.26 1016.15 1016.13 1016.32 1016.02 1015.99 1016.09 1016.11 1016.09 1015.97 1016.00 1016.11 1016.01 1015.80 1015.67 1015.54 1015.25 1014.85 1014.44 1014.04 1013.71 1013.48 1013.13
Thickness
5672 5670 5664 5657 5650 5645 5641 5635 5630 5624 5619 5615 5609 5604 5601 5598 5595 5590 5585 5579 5575 5570 5565 5560 5554 5549 5544 5540 5536 5532 5528 5525
5664 5663 5658 5652 5646 5640 5634 5628 5623 5615 5607 5603 5598 5596 5594 5589 5586 5583 5578 5572 5566 5561 5555 5549 5544 5539 5536 5530 5523 5517 5513 5510
5654 5652 5650 5645 5640 5633 5626 5621 5615 5609 5601 5600 5596 5590 5587 5582 5578 5573 5568 5562 5556 5549 5544 5538 5532 5527 5523 5520 5515 5506 5500 5495
5645 5643 5640 5636 5632 5627 5623 5618 5611 5604 5598 5590 5585 5580 5575 5571 5568 5563 5562 5558 5552 5545 5539 5532 5526 5520 5514 5510 5505 5499 5490 5482
5642 5638 5635 5630 5629 5625 5620 5615 5607 5600 5590 5583 5576 5570 5566 5564 5561 5558 5555 5549 5544 5538 5531 5524 5517 5509 5501 5494 5488 5478 5470 5463
5633 5634 5634 5629 5621 5615 5608 5599 5592 5586 5580 5572 5565 5560 5559 5558 5554 5549 5545 5540 5534 5529 5522 5515 5504 5493 5483 5472 5463 5457 5450 5442
5620 5619 5617 5611 5602 5592 5586 5583 5579 5574 5568 5562 5554 5549 5548 5546 5544 5536 5533 5527 5521 5514 5505 5495 5486 5474 5461 5449 5441 5437 5430 5426
5605 5600 5594 5587 5581 5574 5571 5566 5562 5559 5557 5552 5547 5539 5532 5526 5522 5517 5513 5506 5500 5495 5486 5472 5461 5450 5440 5429 5425 5414 5407 5409
5596 5586 5578 5574 5567 5562 5559 5554 5550 5547 5542 5537 5530 5524 5518 5514 5509 5502 5495 5486 5475 5467 5460 5447 5436 5427 5420 5414 5410 5401 5395 5393
5576 5570 5564 5559 5555 5553 5549 5544 5540 5534 5527 5520 5514 5510 5504 5499 5492 5485 5474 5463 5453 5443 5433 5424 5417 5410 5403 5397 5393 5388 5384 5379
5565 5561 5557 5552 5545 5540 5533 5526 5520 5514 5508 5505 5504 5498 5492 5484 5474 5465 5456 5444 5436 5426 5417 5409 5401 5393 5385 5381 5378 5372 5366 5363
5550 5546 5543 5538 5532 5523 5517 5511 5507 5504 5497 5491 5488 5484 5475 5466 5455 5445 5434 5422 5414 5407 5403 5396 5381 5373 5368 5363 5360 5355 5351 5346
5539 5534 5531 5522 5516 5509 5505 5499 5493 5486 5480 5476 5472 5464 5454 5444 5434 5424 5413 5403 5396 5386 5381 5373 5365 5357 5352 5348 5344 5340 5335 5331
5531 5523 5517 5511 5504 5497 5493 5486 5478 5469 5463 5455 5448 5440 5431 5419 5410 5402 5391 5379 5369 5363 5357 5351 5344 5338 5334 5330 5326 5324 5320 5316
5523 5512 5506 5497 5492 5486 5482 5474 5462 5455 5448 5438 5430 5420 5410 5397 5384 5373 5367 5358 5348 5343 5337 5331 5326 5322 5318 5315 5311 5307 5302 5297
5508 5501 5493 5487 5482 5475 5465 5455 5446 5440 5429 5418 5407 5397 5384 5372 5361 5349 5343 5337 5332 5327 5323 5318 5313 5309 5307 5302 5297 5292 5287 5283
5494 5491 5484 5477 5472 5463 5452 5440 5428 5417 5408 5397 5382 5370 5358 5347 5336 5325 5324 5319 5313 5310 5308 5303 5300 5297 5292 5288 5283 5278 5274 5269
5483 5477 5469 5463 5453 5441 5429 5419 5408 5397 5387 5376 5366 5353 5344 5333 5325 5318 5316 5309 5303 5297 5293 5288 5286 5282 5279 5275 5271 5266 5261 5255
5469 5465 5456 5439 5428 5419 5409 5400 5390 5379 5368 5357 5345 5336 5326 5316 5310 5305 5301 5294 5288 5283 5280 5276 5272 5268 5265 5262 5258 5254 5248 5244